TimeEDT,TemperatureF,Dew PointF,Humidity,Sea Level PressureIn,VisibilityMPH,Wind Direction,Wind SpeedMPH,Gust SpeedMPH,PrecipitationIn,Events,Conditions,WindDirDegrees,DateUTC
12:53 AM,68.0,66.0,93,29.63,4.0,Calm,Calm,-,N/A,,Clear,0,2013-06-28 04:53:00
1:53 AM,68.0,64.9,90,29.63,4.0,Calm,Calm,-,0.01,,Clear,0,2013-06-28 05:53:00
2:27 AM,66.2,64.4,94,29.65,2.5,Calm,Calm,-,N/A,,Partly Cloudy,0,2013-06-28 06:27:00
2:37 AM,66.2,64.4,94,29.65,1.8,Calm,Calm,-,N/A,,Mostly Cloudy,0,2013-06-28 06:37:00
2:53 AM,68.0,66.0,93,29.64,1.0,Calm,Calm,-,N/A,,Overcast,0,2013-06-28 06:53:00
2:56 AM,68.0,66.2,94,29.65,0.8,Calm,Calm,-,N/A,,Mist,0,2013-06-28 06:56:00
3:11 AM,66.2,64.4,94,29.65,0.2,Calm,Calm,-,N/A,Fog,Fog,0,2013-06-28 07:11:00
3:53 AM,66.9,64.9,93,29.62,0.2,Calm,Calm,-,N/A,Fog,Fog,0,2013-06-28 07:53:00
4:03 AM,66.2,64.4,94,29.64,0.5,Calm,Calm,-,N/A,Fog,Fog,0,2013-06-28 08:03:00
4:27 AM,66.2,64.4,94,29.62,1.2,Calm,Calm,-,N/A,,Mostly Cloudy,0,2013-06-28 08:27:00
4:32 AM,66.2,64.4,94,29.62,0.8,Calm,Calm,-,N/A,,Mostly Cloudy,0,2013-06-28 08:32:00
4:38 AM,66.2,64.4,94,29.62,1.0,Calm,Calm,-,N/A,,Mostly Cloudy,0,2013-06-28 08:38:00
4:53 AM,66.9,64.9,93,29.61,1.5,Calm,Calm,-,N/A,,Mostly Cloudy,0,2013-06-28 08:53:00
4:57 AM,66.2,64.4,94,29.62,2.0,Calm,Calm,-,N/A,,Mostly Cloudy,0,2013-06-28 08:57:00
5:03 AM,66.2,64.4,94,29.62,1.8,Calm,Calm,-,N/A,,Mostly Cloudy,0,2013-06-28 09:03:00
5:12 AM,66.2,64.4,94,29.62,2.5,Calm,Calm,-,N/A,,Scattered Clouds,0,2013-06-28 09:12:00
5:31 AM,66.2,64.4,94,29.62,1.0,SW,4.6,-,N/A,,Partly Cloudy,230,2013-06-28 09:31:00
5:46 AM,64.4,64.4,100,29.62,3.0,SW,4.6,-,N/A,,Clear,230,2013-06-28 09:46:00
5:53 AM,66.0,64.0,93,29.60,3.0,SW,5.8,-,N/A,,Partly Cloudy,220,2013-06-28 09:53:00
6:08 AM,66.2,64.4,94,29.61,2.0,SW,3.5,-,N/A,,Partly Cloudy,230,2013-06-28 10:08:00
6:30 AM,66.2,64.4,94,29.61,1.8,Calm,Calm,-,N/A,,Clear,0,2013-06-28 10:30:00
6:45 AM,66.2,64.4,94,29.61,2.5,Calm,Calm,-,N/A,,Clear,0,2013-06-28 10:45:00
6:53 AM,66.0,64.9,96,29.60,3.0,Calm,Calm,-,N/A,,Clear,0,2013-06-28 10:53:00
7:31 AM,68.0,66.2,94,29.61,3.0,WSW,3.5,-,N/A,,Scattered Clouds,250,2013-06-28 11:31:00
7:53 AM,69.1,66.9,93,29.59,4.0,West,3.5,-,N/A,,Scattered Clouds,270,2013-06-28 11:53:00
8:53 AM,73.0,68.0,84,29.59,7.0,NW,5.8,-,N/A,,Scattered Clouds,320,2013-06-28 12:53:00
9:00 AM,71.6,66.2,83,29.61,8.0,NW,5.8,-,N/A,,Mostly Cloudy,320,2013-06-28 13:00:00
9:17 AM,71.6,66.2,83,29.60,10.0,NW,5.8,-,N/A,,Mostly Cloudy,310,2013-06-28 13:17:00
9:53 AM,73.9,66.9,79,29.59,10.0,West,8.1,-,N/A,,Mostly Cloudy,270,2013-06-28 13:53:00
10:01 AM,73.4,66.2,78,29.60,10.0,WNW,8.1,-,N/A,,Scattered Clouds,300,2013-06-28 14:01:00
10:53 AM,75.9,66.0,71,29.57,10.0,WNW,11.5,-,N/A,,Partly Cloudy,290,2013-06-28 14:53:00
11:53 AM,77.0,64.9,66,29.57,10.0,NNW,9.2,-,N/A,,Mostly Cloudy,330,2013-06-28 15:53:00
12:53 PM,77.0,66.0,69,29.56,10.0,North,9.2,-,0.00,,Partly Cloudy,350,2013-06-28 16:53:00
1:53 PM,79.0,64.9,62,29.55,10.0,Variable,6.9,-,N/A,,Scattered Clouds,0,2013-06-28 17:53:00
2:24 PM,78.8,66.2,65,29.56,10.0,North,12.7,-,N/A,Thunderstorm,Thunderstorm,350,2013-06-28 18:24:00
2:53 PM,78.1,64.9,64,29.54,10.0,NNW,10.4,-,N/A,Thunderstorm,Partly Cloudy,340,2013-06-28 18:53:00
3:20 PM,78.8,62.6,57,29.53,10.0,NNW,9.2,-,N/A,,Clear,340,2013-06-28 19:20:00
3:27 PM,77.0,62.6,61,29.54,10.0,North,11.5,-,N/A,Thunderstorm,Partly Cloudy,360,2013-06-28 19:27:00
3:53 PM,66.9,60.1,79,29.60,3.0,West,11.5,27.6,0.03,Rain-Thunderstorm,Heavy Thunderstorms and Rain,260,2013-06-28 19:53:00
4:00 PM,64.4,60.8,88,29.59,5.0,West,8.1,-,0.01,Rain-Thunderstorm,Light Thunderstorms and Rain,280,2013-06-28 20:00:00
4:28 PM,66.2,60.8,83,29.57,7.0,Calm,Calm,-,0.02,Rain-Thunderstorm,Light Rain,0,2013-06-28 20:28:00
4:53 PM,66.9,62.1,84,29.57,10.0,WSW,4.6,-,0.03,Rain,Light Rain,250,2013-06-28 20:53:00
5:53 PM,73.9,61.0,64,29.55,10.0,NNW,9.2,-,0.00,,Clear,340,2013-06-28 21:53:00
6:53 PM,73.0,61.0,66,29.55,10.0,WNW,4.6,-,N/A,,Clear,300,2013-06-28 22:53:00
7:53 PM,71.1,62.1,73,29.59,10.0,NW,9.2,-,N/A,,Scattered Clouds,310,2013-06-28 23:53:00
8:16 PM,64.4,60.8,88,29.61,2.5,West,12.7,19.6,0.05,Rain,Rain,270,2013-06-29 00:16:00
8:24 PM,64.4,59.0,83,29.60,8.0,West,10.4,19.6,0.05,Rain,Light Rain,270,2013-06-29 00:24:00
8:53 PM,63.0,59.0,87,29.58,10.0,West,4.6,-,0.07,Rain,Light Rain,270,2013-06-29 00:53:00
9:53 PM,64.0,61.0,90,29.57,9.0,WSW,5.8,-,0.07,Rain,Light Rain,250,2013-06-29 01:53:00
10:53 PM,64.0,61.0,90,29.57,10.0,West,5.8,-,0.01,,Scattered Clouds,280,2013-06-29 02:53:00
11:53 PM,64.0,61.0,90,29.56,10.0,West,4.6,-,N/A,,Scattered Clouds,260,2013-06-29 03:53:00